Location: Springfield
(37.2150°N, 93.2980°W)
Time: 05:35:49
(UTC-05:00)

Daily predictions for brighter satellites

Satellite Brightness Start Highest point End
(mag) Time Altitude Azimuth Time Altitude Azimuth Time Altitude Azimuth
ATLAS 2AS CENTAUR R/B 4.3 03:00:18 35° NNE 03:00:18 35° NNE 03:04:32 10° NNE
Cosmos 2344 4.4 03:26:23 43° E 03:26:23 43° E 03:33:05 10° NE
Cosmos 2219 Rocket 4.3 03:41:48 10° N 03:46:13 23° ENE 03:50:35 10° ESE
CZ-2D R/B 4.1 03:48:56 10° NNE 03:50:46 22° NNE 03:50:46 22° NNE
Lacrosse 5 rocket 4.2 04:01:27 16° NNE 04:01:27 16° NNE 04:02:27 10° NNE
SL-16 R/B 4.2 04:02:58 23° NNW 04:02:58 23° NNW 04:05:05 10° NNW
Cosmos 2333 Rocket 3.8 04:13:52 10° N 04:18:56 32° ENE 04:23:56 10° ESE
Lacrosse 5 3.3 04:20:27 33° ESE 04:20:27 33° ESE 04:24:12 10° ENE
Cosmos 1821 Rocket 4.3 04:20:29 10° N 04:25:37 61° N 04:25:37 61° N
Resurs 1-4 Rocket 3.7 04:21:46 10° N 04:24:02 25° N 04:24:02 25° N
NOSS 3-4 (A) 3.9 04:26:19 53° SE 04:27:02 56° ESE 04:33:20 10° NE
NOSS 3-4 (C) 3.9 04:26:23 52° SE 04:27:08 55° ESE 04:33:26 10° NE
CZ-4C R/B 2.7 04:26:04 65° NW 04:27:20 84° WSW 04:35:15 10° SSE
Cosmos 1605 Rocket 4.5 04:25:46 10° N 04:31:48 57° E 04:37:53 10° SSE
Cosmos 1934 Rocket 3.9 04:26:26 10° N 04:32:45 84° E 04:33:06 80° SE
NOSS 0 Rocket 4.5 04:36:52 10° NNW 04:43:00 57° ENE 04:49:06 10° SE
CZ-4B R/B 3.6 04:40:24 10° NNE 04:45:44 59° E 04:47:54 35° SSE
RESURS DK-1 3.9 04:46:43 30° ESE 04:47:12 31° ESE 04:50:53 10° NE
MOZ.5/SAFIR/RUBIN 5/SL-8 4.5 04:49:20 45° N 04:49:20 45° N 04:52:37 10° N
CZ-2C R/B 4.1 04:46:59 47° SE 04:48:01 62° ENE 04:52:33 10° N
Hubble Space Telescope 3.2 04:50:28 14° SE 04:50:28 14° SE 04:51:20 10° SE
ATLAS 2AS CENTAUR R/B 4.3 04:47:45 23° NW 04:48:39 23° NW 04:54:51 10° NNE
Cosmos 2237 Rocket 3.2 04:43:39 10° N 04:49:02 45° ENE 04:54:24 10° SE
Meteor 1-13 Rocket 4.4 04:47:17 39° S 04:49:29 72° E 04:55:15 10° NNE
Tiangong 1 3.8 04:54:38 20° ENE 04:54:38 20° ENE 04:55:41 10° ENE
Okean O Rocket 2.1 04:50:42 10° NNE 04:54:07 54° N 04:54:07 54° N
Cosmos 2219 4.5 04:59:59 26° NW 04:59:59 26° NW 05:03:27 10° N
Cosmos 1025 Rocket 3.6 04:59:15 38° SSE 05:00:36 56° E 05:04:52 10° NNE
DELTA 2 R/B (1) 4.3 04:59:55 38° S 05:00:57 42° SSE 05:06:10 10° E
BREEZE M DEB (TANK) 3.8 05:01:28 28° N 05:01:28 28° N 05:06:04 10° NE
Cosmos 1980 4.1 04:56:38 10° NNW 05:02:18 64° ENE 05:07:54 10° SSE
ATLAS 5 CENTAUR R/B 3.3 04:56:55 10° NNW 05:02:47 49° NE 05:09:01 10° SE
Cosmos 923 Rocket 4.2 04:58:44 10° NNW 05:04:05 75° ENE 05:09:25 10° SSE
Cosmos 1346 Rocket 4.3 05:02:15 16° SSE 05:04:59 36° E 05:08:38 10° NNE
SL-16 R/B 4.2 05:02:07 10° N 05:06:59 28° ENE 05:11:48 10° ESE
Cosmos 1743 2.6 05:09:54 10° N 05:13:44 83° E 05:14:09 69° SSE
Delta 2 Rocket 3.2 05:17:21 63° SSE 05:17:21 63° SSE 05:20:36 10° E
Okean 1-7 Rocket 4.2 05:19:21 38° NW 05:19:21 38° NW 05:22:35 10° N
Cosmos 2227 Rocket 2.1 05:17:11 41° SW 05:19:08 70° WNW 05:24:49 10° NNE
NOSS 3-2 (A) 4.0 05:12:13 10° NNW 05:19:50 88° WSW 05:27:59 10° SSE
Cosmos 1726 Rocket 4.3 05:17:52 10° N 05:22:11 53° E 05:26:26 10° SSE
Cosmos 1607 4.3 05:23:12 38° WSW 05:23:12 38° WSW 05:28:44 10° S
CZ-4B R/B 3.1 05:18:59 10° N 05:23:17 57° WNW 05:23:54 52° WSW
USA 238 DEB 4.2 05:22:51 34° W 05:24:06 36° WSW 05:30:23 10° S
USA 238 4.1 05:22:45 33° W 05:24:12 37° WSW 05:30:30 10° S
Cosmos 773 Rocket 4.1 05:21:38 10° NNW 05:26:38 48° WSW 05:31:34 10° S
ADEOS II 2.3 05:22:42 10° NNE 05:27:57 71° ESE 05:33:12 10° S
Cosmos 2297 Rocket 2.1 05:25:25 24° SSW 05:28:53 81° WNW 05:34:33 10° NNE
Cosmos 1892 Rocket 3.8 05:24:36 10° S 05:29:03 73° E 05:33:32 10° N
ASTRO F (AKARI) 4.4 05:26:11 10° SSE 05:29:17 73° ENE 05:32:28 10° N
Cosmos 2219 Rocket 2.3 05:24:57 10° NNW 05:30:25 49° WSW 05:35:50 10° S
CZ-2D R/B 4.1 05:31:14 10° NW 05:32:06 12° NW 05:32:06 12° NW
Okean 2 3.4 05:32:42 10° S 05:36:52 83° E 05:41:02 10° N
Lacrosse 5 rocket 3.8 05:37:12 12° NW 05:38:05 12° NNW 05:40:02 10° N
ISS -1.9 05:40:31 25° SSW 05:40:31 25° SSW 05:42:26 10° SSE
Cosmos 1727 Rocket 4.3 05:36:20 22° SW 05:40:00 43° WNW 05:45:59 10° N
Cosmos 2344 4.4 05:36:24 25° W 05:40:00 36° NW 05:47:59 10° NNE
CZ-4B DEB 4.4 05:35:10 10° N 05:40:24 47° WNW 05:43:54 20° SW
Cosmos 220 Rocket 4.3 05:41:01 35° WSW 05:42:09 44° WNW 05:46:12 10° N
PSLV R/B 3.5 05:37:57 10° N 05:42:16 66° WNW 05:46:08 12° SSW
COBE Rocket 4.4 05:41:28 10° NNE 05:46:13 60° E 05:50:50 10° S
MOS 1 Rocket 3.9 05:42:06 10° NNE 05:46:50 64° E 05:51:51 10° S
Feng Yun 1-1 Rocket 4.3 05:44:29 10° NNE 05:50:09 85° WNW 05:55:56 10° SSW
Meteor 1-31 Rocket 3.3 05:46:17 10° NNE 05:50:09 62° E 05:54:02 10° S
Cosmos 2173 Rocket 3.9 05:46:27 10° N 05:52:34 83° W 05:58:41 10° S
FALCON 9 R/B 4.3 05:48:27 14° SW 05:54:38 55° SE 06:20:41 10° ENE
Okean-O 2.6 05:50:19 10° N 05:54:42 61° WNW 05:59:04 10° SSW
NOSS 3-2 (C) 4.0 05:48:54 10° NW 05:56:27 66° WSW 06:04:29 10° SSE
Cosmos 2112 Rocket 4.1 05:52:21 10° NNW 05:57:31 53° WSW 06:02:35 10° S
Cosmos 2082 4.3 05:54:40 21° WSW 05:57:45 35° WNW 06:02:54 10° N
Cosmos 2228 3.2 05:56:17 10° N 06:00:42 78° E 06:05:03 10° S
CENTAUR R/B 4.1 05:54:09 10° NNW 06:01:44 49° NE 06:09:43 10° SE
Lacrosse 5 2.6 05:59:41 20° W 06:02:32 36° NW 06:07:13 10° NNE
Cosmos 1680 Rocket 3.9 05:57:51 10° NNW 06:02:45 40° W 06:07:36 10° S
Cosmos 2333 Rocket 2.8 05:58:05 10° NW 06:03:08 33° WSW 06:08:08 10° SSW
Cosmos 1459 Rocket 4.0 05:57:00 10° NNW 06:03:18 67° W 06:09:33 10° S
OTV 4 0.3 06:04:28 27° W 06:05:41 58° SSW 06:08:22 10° ESE
ADEOS Rocket 3.7 06:00:36 10° N 06:07:20 44° WNW 06:13:26 10° SW
Cosmos 2058 Rocket 3.0 06:03:30 10° NNW 06:07:48 59° W 06:12:04 10° S
NOSS 2-2 (E) 4.3 06:06:55 10° SSW 06:10:53 54° ESE 06:15:22 10° NE
CZ-4C R/B 4.2 06:11:40 11° WNW 06:15:13 16° WSW 06:19:31 10° SW
Cosmos 2298 Rocket 4.1 06:10:38 10° SSW 06:15:49 55° WNW 06:21:02 10° N
Aureole 2 Rocket 2.6 06:16:29 10° NNW 06:19:58 71° ENE 06:23:07 10° SSE
COSMO-SKYMED 1 3.2 06:16:22 10° SSE 06:20:37 60° ENE 06:24:54 10° N
Thor Agena Rocket 4.4 06:17:00 10° SSW 06:21:27 28° W 06:25:57 10° NW
Cosmos 1515 3.8 06:17:55 10° S 06:21:44 83° E 06:25:35 10° N
RESURS DK-1 3.8 06:22:42 12° W 06:25:18 20° WNW 06:28:21 10° N
Cosmos 1666 3.8 06:23:15 10° NW 06:26:22 24° W 06:29:28 10° SW
Hubble Space Telescope 3.0 06:26:46 10° SW 06:28:40 13° SSW 06:30:34 10° S
Tiangong 1 2.3 06:26:33 10° WNW 06:29:15 30° N 06:32:01 10° NE
Cosmos 292 Rocket 4.3 06:26:27 10° NW 06:30:56 38° WSW 06:35:25 10° S
Cosmos 2150 Rocket 4.3 06:26:14 10° SW 06:31:08 44° WNW 06:36:04 10° N
Cosmos 2227 4.4 06:26:22 10° SSW 06:32:07 84° ESE 06:37:54 10° NNE
Cosmos 2237 Rocket 3.3 06:28:30 10° NW 06:32:44 22° W 06:36:57 10° SSW
SL-24 R/B 3.9 06:30:23 10° N 06:34:48 71° WNW 06:38:42 10° SSW
Cosmos 2098 Rocket 3.3 06:32:26 10° NNW 06:36:06 46° W 06:40:42 10° SSW
USA 129 3.4 06:36:25 10° SW 06:37:40 14° W 06:38:53 10° WNW
Radarsat Rocket 4.2 06:35:13 10° N 06:42:01 70° WNW 06:48:04 10° SSW
